[[{"header":{"parameterUnit":"m.s-1","parameterCategory":1,"la1":30.2991,"la2":30.254,"lo1":-89.0895,"lo2":-89.0444,"dy":0.0017,"dx":0.0017,"nx":28,"ny":28,"refTime":"2024-03-23T21:00:00:Z","depth":0,"parameterNumber":2,"parameterNumberName":"U-component_of_WINDS"},"data":[0,0,0,0,0,0,0,0,0,0,0,0,0,0,0,0,0,0,0,0,0,0,0,0,0,0,0,0,0,0,0,0,0,0,0,0,0,0,0,0,0,0,0,0,0,0,0,0,0,0,0,0,0,0,0,0,0,0,0.8166,0.8166,0,0.8207,0.8207,0.8207,0.8226,0.8226,0.8226,0.8226,0.8266,0.8267,0.8268,0,0,0,0,0,0,0,0,0,0,0,0,0,0.8105,0.8106,0.8166,0.8166,0.8167,0.8206,0.8207,0.8208,0.8226,0.8226,0.8226,0.8226,0.8266,0.8267,0.8269,0,0,0,0,0,0,0,0,0,0,0,0,0,0.8137,0.8106,0.8166,0.8181,0.8183,0.8206,0.8207,0.8208,0.8226,0.8226,0.8226,0.8226,0.8266,0.8267,0.8269,0.828,0,0,0.8274,0.8275,0,0,0,0,0,0,0,0,0.8135,0.8139,0.8178,0.818,0.8182,0.8211,0.82,0.8232,0.8226,0.821,0.8226,0.8226,0.8248,0.8251,0.8259,0.8282,0.8283,0.8274,0.8275,0.8276,0.8276,0,0,0,0,0,0,0,0.8133,0.8137,0.8182,0.8179,0.8181,0.8186,0.819,0.8206,0.8229,0.8211,0.8213,0.8217,0.8249,0.8257,0.826,0.8284,0.8274,0.8275,0.8276,0.8277,0.832,0.832,0,0,0,0,0,0,0.8128,0.8135,0.8181,0.8183,0.8158,0.8187,0.8192,0.8202,0.8228,0.8232,0.8217,0.8218,0.8254,0.8258,0.8261,0.8277,0.8276,0.8277,0.8278,0.832,0.832,0.832,0,0,0,0,0,0,0.8127,0.8132,0.8179,0.816,0.8166,0.8188,0.8199,0.8203,0.8211,0.8233,0.8237,0.8221,0.8254,0.8259,0.8276,0.8279,0.8278,0.8279,0.832,0.832,0.832,0.8308,0,0,0,0,0,0,0.8125,0.8131,0.8135,0.816,0.8167,0.8192,0.8199,0.8204,0.8214,0.8215,0.8238,0.8242,0.8255,0.8273,0.8277,0.8281,0.8281,0.832,0.832,0.832,0.8308,0.8308,0.8307,0,0,0,0,0,0.8123,0.813,0.8135,0.8141,0.8173,0.8193,0.8197,0.8212,0.8214,0.8219,0.8233,0.8241,0.8278,0.8275,0.8279,0.8284,0.832,0.832,0.832,0.8308,0.8308,0.8307,0,0,0,0,0,0,0.8104,0.8133,0.814,0.8155,0.8171,0.8196,0.8202,0.8211,0.8226,0.8227,0.8245,0.825,0.8265,0.8276,0.8272,0.8297,0.83,0.8301,0.8289,0.8288,0.8288,0.8285,0.8282,0,0,0,0,0,0.8102,0.8116,0.814,0.8151,0.8159,0.8179,0.8188,0.8199,0.8216,0.8223,0.8239,0.8255,0.8271,0.828,0.8296,0.831,0.8316,0.8316,0.8315,0.8315,0.8316,0.8326,0.8326,0.8322,0.8322,0.8322,0,0,0.8097,0.8115,0.8122,0.8148,0.8162,0.8176,0.8185,0.8199,0.821,0.8225,0.8242,0.8254,0.8274,0.829,0.8298,0.83,0.8318,0.8315,0.8315,0.8316,0.8326,0.8326,0.8327,0.8322,0.8322,0.8322,0,0,0.8095,0.811,0.8121,0.8136,0.8157,0.8171,0.8174,0.8198,0.8207,0.8224,0.8237,0.825,0.8276,0.829,0.83,0.8307,0.8315,0.8312,0.8309,0.8319,0.8319,0.8319,0.8322,0.8323,0.8312,0.8312,0.8312,0,0.8087,0.8108,0.8126,0.814,0.8152,0.8168,0.818,0.8193,0.8218,0.8225,0.8228,0.8262,0.8276,0.8296,0.8298,0.8306,0.831,0.8308,0.8318,0.8318,0.8319,0.8322,0.8323,0.8312,0.8312,0.8312,0.8312,0,0.8097,0.8112,0.8119,0.8144,0.8156,0.8169,0.8189,0.82,0.821,0.8224,0.8242,0.826,0.828,0.8286,0.8295,0.8308,0.8309,0.8314,0.8317,0.8318,0.8322,0.8323,0.8311,0.8311,0.8311,0.8312,0,0,0.8083,0.8119,0.8121,0.8134,0.816,0.8172,0.8187,0.8207,0.8216,0.8234,0.8246,0.8269,0.8275,0.8287,0.8298,0.8307,0.8312,0.8311,0.8312,0.8311,0.8329,0.8324,0.8325,0.8318,0.8319,0.8319,0.8327,0,0.8085,0.8112,0.8129,0.8149,0.8164,0.8181,0.8193,0.8211,0.8225,0.824,0.8255,0.8271,0.8277,0.8284,0.8294,0.831,0.8316,0.8309,0.8331,0.8331,0.8325,0.8327,0.8322,0.8329,0.8328,0.8329,0.8329,0,0.809,0.8109,0.813,0.8157,0.8164,0.8175,0.8196,0.821,0.8231,0.824,0.8255,0.8267,0.8284,0.8287,0.831,0.8305,0.8315,0.8325,0.8326,0.8328,0.8329,0.8329,0.8331,0.8332,0.8331,0.8331,0.8331,0,0.8079,0.8109,0.8126,0.8136,0.8167,0.8175,0.8188,0.8209,0.8221,0.824,0.8248,0.8268,0.8279,0.8294,0.8312,0.8312,0.8334,0.8338,0.8343,0.8342,0.8346,0.8345,0.8349,0.8353,0.8353,0.8353,0.8353,0,0.8079,0.8091,0.8121,0.8132,0.8147,0.8167,0.8182,0.8196,0.8216,0.823,0.8245,0.8258,0.8281,0.8297,0.8311,0.8329,0.8334,0.8342,0.8346,0.8341,0.834,0.8347,0.8347,0.8353,0.8353,0.8353,0.8353,0,0.8067,0.8088,0.8108,0.8136,0.8144,0.8154,0.8178,0.819,0.8205,0.8223,0.8228,0.8253,0.8273,0.8292,0.8319,0.8328,0.8346,0.8351,0.8339,0.8341,0.8345,0.8344,0.8354,0.8356,0.8358,0.8358,0.8358,0,0.8066,0.8076,0.8107,0.8118,0.8131,0.8148,0.8161,0.8182,0.8195,0.8221,0.8229,0.8251,0.8268,0.83,0.832,0.834,0.8346,0.8348,0.8349,0.8344,0.8346,0.8345,0.8347,0.8347,0.8347,0.8347,0.8346,0,0.8061,0.8072,0.809,0.8112,0.8127,0.8145,0.8164,0.8172,0.8197,0.8211,0.8232,0.8246,0.8274,0.8295,0.8319,0.8333,0.8344,0.8346,0.8349,0.8343,0.8336,0.834,0.8337,0.8346,0.8346,0.8346,0.8346,0.8346,0.8055,0.8066,0.8089,0.8109,0.8126,0.8144,0.8156,0.8174,0.8192,0.8217,0.8229,0.825,0.8273,0.8306,0.832,0.8338,0.834,0.8343,0.8344,0.8345,0.8344,0.8334,0.8342,0.8342,0.8342,0.8342,0.8342,0,0.8051,0.8068,0.8086,0.8113,0.8129,0.814,0.8162,0.8175,0.8193,0.8214,0.8232,0.8257,0.8278,0.8301,0.8324,0.8334,0.8339,0.8339,0.8338,0.8341,0.834,0.8336,0.8334,0.8334,0.8334,0.8334,0.8334,0.8334,0.8051,0.807,0.8084,0.8112,0.8128,0.815,0.8162,0.8179,0.8195,0.8223,0.8241,0.8256,0.8278,0.8303,0.8323,0.833,0.8337,0.8335,0.8343,0.8341,0.8341,0.8342,0.8338,0.8337,0.8337,0.8343,0.8343,0.8343]},{"header":{"parameterUnit":"m.s-1","parameterCategory":1,"la1":30.2991,"la2":30.254,"lo1":-89.0895,"lo2":-89.0444,"dy":0.0017,"dx":0.0017,"nx":28,"ny":28,"refTime":"2024-03-23T21:00:00:Z","depth":0,"parameterNumber":3,"parameterNumberName":"V-component_of_WINDS"},"data":[0,0,0,0,0,0,0,0,0,0,0,0,0,0,0,0,0,0,0,0,0,0,0,0,0,0,0,0,0,0,0,0,0,0,0,0,0,0,0,0,0,0,0,0,0,0,0,0,0,0,0,0,0,0,0,0,0,0,-5.7018,-5.7018,0,-5.7062,-5.7062,-5.7063,-5.702,-5.7018,-5.7017,-5.7015,-5.7056,-5.7058,-5.7061,0,0,0,0,0,0,0,0,0,0,0,0,0,-5.6895,-5.6897,-5.7018,-5.7018,-5.7019,-5.7062,-5.7062,-5.7063,-5.702,-5.7018,-5.7016,-5.7014,-5.7055,-5.7058,-5.7061,0,0,0,0,0,0,0,0,0,0,0,0,0,-5.6944,-5.6898,-5.7018,-5.7003,-5.7002,-5.7062,-5.7062,-5.7063,-5.7021,-5.7018,-5.7016,-5.7013,-5.7054,-5.7058,-5.7062,-5.7137,0,0,-5.7074,-5.7076,0,0,0,0,0,0,0,0,-5.6942,-5.6949,-5.7005,-5.7004,-5.7003,-5.7033,-5.7034,-5.7088,-5.7021,-5.7014,-5.7015,-5.7012,-5.705,-5.7054,-5.7068,-5.7139,-5.714,-5.7074,-5.7077,-5.7078,-5.7079,0,0,0,0,0,0,0,-5.6938,-5.6947,-5.7035,-5.7006,-5.7005,-5.6993,-5.6998,-5.7044,-5.7045,-5.7014,-5.7011,-5.7017,-5.7049,-5.7064,-5.7068,-5.7141,-5.7074,-5.7078,-5.708,-5.7082,-5.7277,-5.728,0,0,0,0,0,0,-5.6937,-5.6944,-5.7034,-5.7036,-5.6966,-5.6998,-5.7002,-5.7026,-5.7045,-5.7045,-5.7019,-5.7015,-5.7058,-5.7064,-5.707,-5.716,-5.7078,-5.7082,-5.7084,-5.7274,-5.7277,-5.728,0,0,0,0,0,0,-5.6934,-5.6945,-5.7032,-5.699,-5.7,-5.7002,-5.7029,-5.7028,-5.7043,-5.7049,-5.7048,-5.7034,-5.7057,-5.7064,-5.7121,-5.716,-5.7084,-5.7087,-5.7271,-5.7275,-5.7279,-5.734,0,0,0,0,0,0,-5.6931,-5.6945,-5.6974,-5.6991,-5.7002,-5.7083,-5.7032,-5.7031,-5.705,-5.7045,-5.7063,-5.7063,-5.7055,-5.7115,-5.7125,-5.7164,-5.7091,-5.7267,-5.7273,-5.7278,-5.7334,-5.7345,-5.7355,0,0,0,0,0,-5.6927,-5.6988,-5.6975,-5.6986,-5.7039,-5.7086,-5.7092,-5.7083,-5.7054,-5.7083,-5.7087,-5.7063,-5.7155,-5.7121,-5.7132,-5.7173,-5.7265,-5.7271,-5.7277,-5.7329,-5.7343,-5.7355,0,0,0,0,0,0,-5.6973,-5.6989,-5.6976,-5.7044,-5.7064,-5.7079,-5.7115,-5.7098,-5.7125,-5.7119,-5.7105,-5.711,-5.717,-5.7177,-5.714,-5.7248,-5.7205,-5.7213,-5.7241,-5.7254,-5.7264,-5.7261,-5.7094,0,0,0,0,0,-5.6992,-5.703,-5.7041,-5.7101,-5.7112,-5.7112,-5.7132,-5.7123,-5.7143,-5.715,-5.7158,-5.7177,-5.721,-5.7232,-5.7263,-5.7335,-5.7338,-5.7369,-5.7379,-5.7388,-5.7395,-5.7435,-5.7449,-5.7301,-5.7301,-5.7301,0,0,-5.7029,-5.7043,-5.7068,-5.711,-5.7125,-5.7164,-5.7119,-5.7161,-5.719,-5.7156,-5.7211,-5.7218,-5.7238,-5.7303,-5.7332,-5.7311,-5.7437,-5.7396,-5.7403,-5.7406,-5.7443,-5.7457,-5.7469,-5.7305,-5.7305,-5.7304,0,0,-5.7119,-5.7133,-5.7185,-5.7201,-5.7224,-5.7224,-5.7237,-5.7254,-5.7258,-5.7313,-5.7289,-5.7323,-5.738,-5.7396,-5.7411,-5.7509,-5.7488,-5.752,-5.7574,-5.7613,-5.7625,-5.7635,-5.767,-5.7683,-5.7527,-5.7527,-5.7527,0,-5.7162,-5.7222,-5.7213,-5.7258,-5.7278,-5.7252,-5.7304,-5.7319,-5.7351,-5.7365,-5.7341,-5.7414,-5.7425,-5.7494,-5.7518,-5.7532,-5.7545,-5.7517,-5.7624,-5.7634,-5.7643,-5.7677,-5.7691,-5.7531,-5.7531,-5.753,-5.753,0,-5.7275,-5.7316,-5.7355,-5.7389,-5.7413,-5.7461,-5.7459,-5.7484,-5.7475,-5.7477,-5.7534,-5.7547,-5.7581,-5.7597,-5.7587,-5.7665,-5.7651,-5.7626,-5.7583,-5.7661,-5.7693,-5.7706,-5.7536,-5.7535,-5.7534,-5.7533,0,0,-5.7393,-5.7423,-5.7437,-5.7453,-5.7478,-5.7509,-5.7557,-5.7592,-5.7614,-5.7637,-5.7676,-5.7727,-5.7704,-5.7722,-5.7713,-5.7747,-5.7826,-5.7718,-5.7718,-5.7738,-5.7914,-5.7933,-5.7948,-5.7812,-5.7815,-5.7816,-5.7912,0,-5.7483,-5.7568,-5.7562,-5.7641,-5.768,-5.7656,-5.7698,-5.7717,-5.7721,-5.7754,-5.7757,-5.7794,-5.7761,-5.7772,-5.7804,-5.7809,-5.7861,-5.7802,-5.7848,-5.785,-5.7844,-5.7964,-5.7984,-5.8074,-5.7924,-5.7927,-5.7928,0,-5.76,-5.763,-5.7713,-5.7734,-5.775,-5.7788,-5.782,-5.7852,-5.7874,-5.7874,-5.7896,-5.7882,-5.7929,-5.7886,-5.7951,-5.7912,-5.793,-5.7936,-5.7939,-5.7943,-5.7894,-5.7972,-5.8102,-5.8116,-5.7947,-5.7946,-5.7944,0,-5.7679,-5.7739,-5.7798,-5.7812,-5.7837,-5.7865,-5.7876,-5.7896,-5.7918,-5.7946,-5.796,-5.7992,-5.801,-5.8036,-5.8031,-5.7999,-5.8098,-5.8053,-5.81,-5.81,-5.8121,-5.812,-5.8257,-5.8133,-5.8133,-5.8132,-5.8132,0,-5.778,-5.7832,-5.7834,-5.787,-5.7928,-5.7921,-5.7978,-5.7986,-5.8004,-5.8041,-5.8022,-5.8056,-5.8048,-5.8082,-5.8079,-5.8134,-5.8142,-5.8144,-5.8142,-5.8146,-5.8145,-5.8157,-5.8151,-5.8136,-5.8135,-5.8135,-5.8134,0,-5.7878,-5.7881,-5.7943,-5.7963,-5.7969,-5.8011,-5.8028,-5.8062,-5.8065,-5.8112,-5.8122,-5.8127,-5.8167,-5.8165,-5.8209,-5.8207,-5.8275,-5.8266,-5.8268,-5.8267,-5.8313,-5.8309,-5.8462,-5.8482,-5.8346,-5.8347,-5.8348,0,-5.7942,-5.7982,-5.8008,-5.8032,-5.8046,-5.8085,-5.8108,-5.8103,-5.8128,-5.8157,-5.8188,-5.8226,-5.8256,-5.832,-5.8327,-5.8361,-5.8353,-5.8404,-5.8358,-5.836,-5.8354,-5.8352,-5.8356,-5.8413,-5.8415,-5.8416,-5.8417,0,-5.8057,-5.8057,-5.8092,-5.8129,-5.8157,-5.8185,-5.821,-5.8231,-5.8229,-5.8257,-5.8299,-5.8323,-5.8369,-5.8408,-5.8441,-5.8451,-5.8434,-5.8432,-5.8445,-5.8448,-5.8448,-5.845,-5.8294,-5.8428,-5.8427,-5.8426,-5.8426,-5.8425,-5.814,-5.8175,-5.82,-5.824,-5.8259,-5.8284,-5.8317,-5.8326,-5.8361,-5.84,-5.8394,-5.8441,-5.8463,-5.8506,-5.852,-5.8556,-5.8537,-5.8555,-5.856,-5.8564,-5.857,-5.8443,-5.8561,-5.8561,-5.8561,-5.8561,-5.856,0,-5.8254,-5.827,-5.8307,-5.8344,-5.8376,-5.8359,-5.8387,-5.8414,-5.8456,-5.8479,-5.851,-5.8558,-5.8596,-5.8607,-5.8643,-5.8669,-5.8662,-5.8679,-5.8677,-5.868,-5.8584,-5.857,-5.8684,-5.8684,-5.8684,-5.8684,-5.8684,-5.8684,-5.8318,-5.8377,-5.838,-5.8449,-5.8463,-5.851,-5.8528,-5.8551,-5.8569,-5.8624,-5.8656,-5.8664,-5.8682,-5.872,-5.8753,-5.8756,-5.877,-5.879,-5.8789,-5.8699,-5.8686,-5.8675,-5.8661,-5.8793,-5.8793,-5.8882,-5.8882,-5.8883]}]]